,,,PA_Meas_PMT16A,,PR_Meas_QMR101_102,,RH_Meas_QMH101,,SR_Meas_QMS101,,TA_Meas_QMH101,,GenWind,,GenWind,
date,time,status,PA,status,PR,status,RH,status,SR,status,TA,status,DirAvg,status,SpdAvg,
2008-06-04, 00:00:04,VALID,1004.94,VALID,0,VALID,90.7303,VALID,0.100563,VALID,24.9106,VALID,34,VALID,0.823047,
2008-06-04, 00:01:04,VALID,1004.93,VALID,0,VALID,90.593,VALID,0,VALID,24.93,VALID,28,VALID,0.672266,
2008-06-04, 00:02:04,VALID,1004.9,VALID,0,VALID,90.5243,VALID,0.100563,VALID,24.93,VALID,27,VALID,0.855859,
2008-06-04, 00:03:04,VALID,1004.92,VALID,0,VALID,90.4251,VALID,0,VALID,24.9495,VALID,330,VALID,0.661328,
2008-06-04, 00:04:04,VALID,1004.93,VALID,0,VALID,90.3793,VALID,0,VALID,24.9495,VALID,14,VALID,0.619922,
2008-06-04, 00:05:04,VALID,1004.96,VALID,0,VALID,89.9979,VALID,0,VALID,25.0293,VALID,29,VALID,1.08242,
2008-06-04, 00:06:04,VALID,1004.97,VALID,0,VALID,89.853,VALID,0.100563,VALID,25.0877,VALID,31,VALID,0.676562,
2008-06-04, 00:07:04,VALID,1004.98,VALID,0,VALID,89.6012,VALID,0.100563,VALID,25.1248,VALID,32,VALID,0.177734,
2008-06-04, 00:08:04,VALID,1005,VALID,0,VALID,89.3189,VALID,0.100563,VALID,25.1423,VALID,31,VALID,0.273828,
2008-06-04, 00:09:04,VALID,1005.01,VALID,0,VALID,88.7773,VALID,0.100563,VALID,25.2416,VALID,29,VALID,0.955859,
2008-06-04, 00:10:04,VALID,1005.02,VALID,0,VALID,88.3424,VALID,0,VALID,25.3195,VALID,334,VALID,0.546094,
2008-06-04, 00:11:04,VALID,1005,VALID,0,VALID,88.0602,VALID,0,VALID,25.3779,VALID,11,VALID,0.336719,
2008-06-04, 00:12:04,VALID,1005,VALID,0,VALID,88.0373,VALID,0,VALID,25.3974,VALID,12,VALID,0.517969,
2008-06-04, 00:13:04,VALID,1005,VALID,0,VALID,87.9457,VALID,0,VALID,25.4012,VALID,11,VALID,0.196094,
2008-06-04, 00:14:04,VALID,1005,VALID,0,VALID,87.6024,VALID,0,VALID,25.4188,VALID,20,VALID,0.653906,
2008-06-04, 00:15:04,VALID,1004.99,VALID,0,VALID,87.1828,VALID,0,VALID,25.4772,VALID,50,VALID,0.960156,
2008-06-04, 00:16:04,VALID,1005,VALID,0,VALID,86.9311,VALID,0,VALID,25.5746,VALID,40,VALID,0.958203,
2008-06-04, 00:17:04,VALID,1005,VALID,0,VALID,86.9311,VALID,0,VALID,25.5921,VALID,23,VALID,0.567578,
2008-06-04, 00:18:04,VALID,1004.97,VALID,0,VALID,86.8472,VALID,0,VALID,25.5727,VALID,67,VALID,0.789063,
2008-06-04, 00:19:04,VALID,1004.97,VALID,0,VALID,87.1676,VALID,0,VALID,25.5727,VALID,356,VALID,0.645312,
2008-06-04, 00:20:04,VALID,1004.97,VALID,0,VALID,87.1066,VALID,0,VALID,25.5337,VALID,18,VALID,0.969531,
2008-06-04, 00:21:04,VALID,1004.94,VALID,0,VALID,87.343,VALID,0,VALID,25.4948,VALID,33,VALID,0.641797,
2008-06-04, 00:22:04,VALID,1004.92,VALID,0,VALID,87.5719,VALID,0,VALID,25.4772,VALID,356,VALID,0.279687,
2008-06-04, 00:23:04,VALID,1004.89,VALID,0,VALID,87.9839,VALID,0,VALID,25.3974,VALID,4,VALID,0.530469,
2008-06-04, 00:24:04,VALID,1004.85,VALID,0,VALID,88.289,VALID,0,VALID,25.2611,VALID,10,VALID,0.775,
2008-06-04, 00:25:04,VALID,1004.82,VALID,0,VALID,88.6018,VALID,0.100563,VALID,25.1832,VALID,1,VALID,0.681641,
2008-06-04, 00:26:04,VALID,1004.75,VALID,0,VALID,89.0061,VALID,0.100563,VALID,25.1637,VALID,7,VALID,0.587109,
2008-06-04, 00:27:04,VALID,1004.74,VALID,0,VALID,88.9222,VALID,0,VALID,25.1053,VALID,16,VALID,1.30352,
2008-06-04, 00:28:04,VALID,1004.74,VALID,0,VALID,88.6934,VALID,0,VALID,25.1442,VALID,17,VALID,1.00352,
2008-06-04, 00:29:04,VALID,1004.74,VALID,0,VALID,88.5179,VALID,0,VALID,25.1637,VALID,29,VALID,0.392969,
2008-06-04, 00:30:04,VALID,1004.74,VALID,0,VALID,88.5408,VALID,0.100563,VALID,25.2221,VALID,23,VALID,0.495313,
2008-06-04, 00:31:04,VALID,1004.75,VALID,0,VALID,88.3653,VALID,0.100563,VALID,25.2027,VALID,23,VALID,0.719531,
2008-06-04, 00:32:04,VALID,1004.77,VALID,0,VALID,88.3729,VALID,0,VALID,25.2027,VALID,23,VALID,0.327344,
2008-06-04, 00:33:04,VALID,1004.75,VALID,0,VALID,88.4721,VALID,0.100563,VALID,25.1832,VALID,154,VALID,0.677734,
2008-06-04, 00:34:04,VALID,1004.74,VALID,0,VALID,88.0602,VALID,0,VALID,25.1656,VALID,47,VALID,0.980859,
2008-06-04, 00:35:04,VALID,1004.71,VALID,0,VALID,87.816,VALID,0,VALID,25.2416,VALID,34,VALID,1.15391,
2008-06-04, 00:36:04,VALID,1004.73,VALID,0,VALID,87.2591,VALID,0.100563,VALID,25.3019,VALID,33,VALID,0.753125,
2008-06-04, 00:37:04,VALID,1004.72,VALID,0,VALID,87.2439,VALID,0,VALID,25.339,VALID,360,VALID,0.755469,
2008-06-04, 00:38:04,VALID,1004.72,VALID,0,VALID,87.2744,VALID,0,VALID,25.3584,VALID,22,VALID,0.299219,
2008-06-04, 00:39:04,VALID,1004.74,VALID,0,VALID,86.8395,VALID,0,VALID,25.3584,VALID,33,VALID,1.14414,
2008-06-04, 00:40:04,VALID,1004.75,VALID,0,VALID,86.5496,VALID,0,VALID,25.4558,VALID,92,VALID,0.833594,
2008-06-04, 00:41:04,VALID,1004.72,VALID,0,VALID,86.42,VALID,0,VALID,25.4772,VALID,89,VALID,0.241016,
2008-06-04, 00:42:04,VALID,1004.7,VALID,0,VALID,86.0461,VALID,0,VALID,25.4772,VALID,68,VALID,0.349609,
2008-06-04, 00:43:04,VALID,1004.67,VALID,0,VALID,86.0614,VALID,0,VALID,25.4753,VALID,27,VALID,0.78125,
2008-06-04, 00:44:04,VALID,1004.66,VALID,0,VALID,86.069,VALID,0.100563,VALID,25.4753,VALID,14,VALID,0.650391,
2008-06-04, 00:45:04,VALID,1004.69,VALID,0,VALID,86.1377,VALID,0,VALID,25.4363,VALID,31,VALID,0.315234,
2008-06-04, 00:46:04,VALID,1004.7,VALID,0,VALID,86.2521,VALID,0,VALID,25.4363,VALID,33,VALID,1.22812,
2008-06-04, 00:47:04,VALID,1004.7,VALID,0,VALID,86.1301,VALID,0.100563,VALID,25.4558,VALID,31,VALID,0.912891,
2008-06-04, 00:48:04,VALID,1004.71,VALID,0,VALID,86.1606,VALID,0,VALID,25.4577,VALID,13,VALID,1.36875,
2008-06-04, 00:49:04,VALID,1004.72,VALID,0,VALID,86.4123,VALID,0,VALID,25.4363,VALID,12,VALID,0.700781,
2008-06-04, 00:50:04,VALID,1004.73,VALID,0,VALID,85.8554,VALID,0,VALID,25.4772,VALID,24,VALID,0.909766,
2008-06-04, 00:51:04,VALID,1004.74,VALID,0,VALID,85.9699,VALID,0,VALID,25.4948,VALID,33,VALID,0.796094,
2008-06-04, 00:52:04,VALID,1004.74,VALID,0,VALID,86.1835,VALID,0,VALID,25.5162,VALID,32,VALID,0.807031,
2008-06-04, 00:53:04,VALID,1004.71,VALID,0,VALID,85.9393,VALID,0,VALID,25.4948,VALID,30,VALID,1.40547,
2008-06-04, 00:54:04,VALID,1004.74,VALID,0,VALID,86.0767,VALID,0,VALID,25.4753,VALID,38,VALID,0.851563,
2008-06-04, 00:55:04,VALID,1004.71,VALID,0,VALID,86.4047,VALID,0.100563,VALID,25.4772,VALID,12,VALID,0.648828,
2008-06-04, 00:56:04,VALID,1004.69,VALID,0,VALID,86.5039,VALID,0,VALID,25.4383,VALID,2,VALID,0.623438,
2008-06-04, 00:57:04,VALID,1004.68,VALID,0,VALID,86.5268,VALID,0,VALID,25.4188,VALID,20,VALID,1.31172,
2008-06-04, 00:58:04,VALID,1004.71,VALID,0,VALID,86.6717,VALID,0,VALID,25.3993,VALID,23,VALID,1.15625,
2008-06-04, 00:59:04,VALID,1004.72,VALID,0,VALID,86.6488,VALID,0,VALID,25.3779,VALID,18,VALID,0.592188,
2008-06-04, 01:00:04,VALID,1004.71,VALID,0,VALID,86.687,VALID,0,VALID,25.3779,VALID,40,VALID,0.614844,
2008-06-04, 01:01:04,VALID,1004.72,VALID,0,VALID,86.3437,VALID,0,VALID,25.4188,VALID,16,VALID,1.40664,
2008-06-04, 01:02:04,VALID,1004.74,VALID,0,VALID,86.0156,VALID,0,VALID,25.4967,VALID,11,VALID,0.761719,
2008-06-04, 01:03:04,VALID,1004.78,VALID,0,VALID,85.9165,VALID,0,VALID,25.5357,VALID,12,VALID,0.941016,
2008-06-04, 01:04:04,VALID,1004.79,VALID,0,VALID,85.8325,VALID,0,VALID,25.5142,VALID,67,VALID,0.476172,
2008-06-04, 01:05:04,VALID,1004.76,VALID,0,VALID,85.7105,VALID,0,VALID,25.5746,VALID,52,VALID,0.432813,
2008-06-04, 01:06:04,VALID,1004.74,VALID,0,VALID,85.6418,VALID,0,VALID,25.5746,VALID,8,VALID,0.970703,
2008-06-04, 01:07:04,VALID,1004.73,VALID,0,VALID,85.802,VALID,0,VALID,25.5941,VALID,6,VALID,1.06602,
2008-06-04, 01:08:04,VALID,1004.72,VALID,0,VALID,85.5884,VALID,0,VALID,25.5941,VALID,347,VALID,0.692969,
2008-06-04, 01:09:04,VALID,1004.71,VALID,0,VALID,85.6494,VALID,0,VALID,25.5941,VALID,358,VALID,0.875,
2008-06-04, 01:10:04,VALID,1004.68,VALID,0,VALID,85.7257,VALID,0,VALID,25.5727,VALID,348,VALID,0.992578,
2008-06-04, 01:11:04,VALID,1004.64,VALID,0,VALID,85.6723,VALID,0,VALID,25.5941,VALID,26,VALID,0.918359,
2008-06-04, 01:12:04,VALID,1004.61,VALID,0,VALID,85.8859,VALID,0.100563,VALID,25.5921,VALID,24,VALID,0.754297,
2008-06-04, 01:13:04,VALID,1004.57,VALID,0,VALID,85.2451,VALID,0,VALID,25.6506,VALID,26,VALID,1.25,
2008-06-04, 01:14:04,VALID,1004.53,VALID,0,VALID,85.4663,VALID,0,VALID,25.6895,VALID,22,VALID,0.946484,
2008-06-04, 01:15:04,VALID,1004.52,VALID,0,VALID,85.1917,VALID,0,VALID,25.67,VALID,11,VALID,1.00508,
2008-06-04, 01:16:04,VALID,1004.47,VALID,0,VALID,85.4206,VALID,0,VALID,25.672,VALID,17,VALID,0.739062,
2008-06-04, 01:17:04,VALID,1004.43,VALID,0,VALID,85.3824,VALID,0,VALID,25.672,VALID,18,VALID,0.559766,
2008-06-04, 01:18:04,VALID,1004.43,VALID,0,VALID,85.4969,VALID,0.100563,VALID,25.6506,VALID,23,VALID,0.621094,
2008-06-04, 01:19:04,VALID,1004.46,VALID,0,VALID,85.7105,VALID,0,VALID,25.6116,VALID,25,VALID,0.633984,
2008-06-04, 01:20:04,VALID,1004.45,VALID,0,VALID,86.0614,VALID,0,VALID,25.5532,VALID,21,VALID,0.806641,
2008-06-04, 01:21:04,VALID,1004.42,VALID,0,VALID,86.3971,VALID,0,VALID,25.5162,VALID,21,VALID,0.922656,
2008-06-04, 01:22:04,VALID,1004.41,VALID,0,VALID,86.5268,VALID,0,VALID,25.4753,VALID,9,VALID,0.729688,
2008-06-04, 01:23:04,VALID,1004.38,VALID,0,VALID,86.4962,VALID,0.100563,VALID,25.5142,VALID,15,VALID,0.901172,
2008-06-04, 01:24:04,VALID,1004.34,VALID,0,VALID,86.8624,VALID,0,VALID,25.5142,VALID,23,VALID,0.585938,
2008-06-04, 01:25:04,VALID,1004.37,VALID,0,VALID,86.8701,VALID,0.100563,VALID,25.4383,VALID,28,VALID,1.02617,
2008-06-04, 01:26:04,VALID,1004.38,VALID,0,VALID,87.0226,VALID,0,VALID,25.4169,VALID,35,VALID,0.702734,
2008-06-04, 01:27:04,VALID,1004.35,VALID,0,VALID,86.8548,VALID,0,VALID,25.4363,VALID,16,VALID,0.509766,
2008-06-04, 01:28:04,VALID,1004.3,VALID,0,VALID,86.8167,VALID,0,VALID,25.4577,VALID,15,VALID,0.746875,
2008-06-04, 01:29:04,VALID,1004.29,VALID,0,VALID,86.5496,VALID,0,VALID,25.4772,VALID,1,VALID,1.47461,
2008-06-04, 01:30:04,VALID,1004.27,VALID,0,VALID,86.0767,VALID,0,VALID,25.5357,VALID,28,VALID,0.851953,
2008-06-04, 01:31:04,VALID,1004.28,VALID,0,VALID,85.9165,VALID,0,VALID,25.5941,VALID,30,VALID,0.926562,
2008-06-04, 01:32:04,VALID,1004.29,VALID,0,VALID,85.9699,VALID,0,VALID,25.5746,VALID,65,VALID,0.526563,
2008-06-04, 01:33:04,VALID,1004.33,VALID,0,VALID,86.2674,VALID,0,VALID,25.5181,VALID,64,VALID,0.468359,
2008-06-04, 01:34:04,VALID,1004.34,VALID,0,VALID,86.5573,VALID,0,VALID,25.4383,VALID,64,VALID,0.215625,
2008-06-04, 01:35:04,VALID,1004.3,VALID,0,VALID,86.7175,VALID,0,VALID,25.3798,VALID,87,VALID,1.25,
2008-06-04, 01:36:04,VALID,1004.27,VALID,0,VALID,86.8701,VALID,0,VALID,25.3409,VALID,62,VALID,0.35625,
2008-06-04, 01:37:04,VALID,1004.23,VALID,0,VALID,87.1066,VALID,0,VALID,25.2825,VALID,58,VALID,0.540625,
2008-06-04, 01:38:04,VALID,1004.2,VALID,0,VALID,87.427,VALID,0,VALID,25.224,VALID,39,VALID,0.453906,
2008-06-04, 01:39:04,VALID,1004.22,VALID,0,VALID,87.6406,VALID,0,VALID,25.2046,VALID,9,VALID,1.05547,
2008-06-04, 01:40:04,VALID,1004.21,VALID,0,VALID,87.7932,VALID,0,VALID,25.2046,VALID,32,VALID,0.626172,
2008-06-04, 01:41:04,VALID,1004.21,VALID,0,VALID,87.9381,VALID,0,VALID,25.2065,VALID,4,VALID,0.515625,
2008-06-04, 01:42:04,VALID,1004.2,VALID,0,VALID,87.9457,VALID,0,VALID,25.1851,VALID,29,VALID,0.853516,
2008-06-04, 01:43:04,VALID,1004.2,VALID,0,VALID,87.7016,VALID,0,VALID,25.2046,VALID,44,VALID,0.817969,
2008-06-04, 01:44:04,VALID,1004.16,VALID,0,VALID,87.5872,VALID,0,VALID,25.224,VALID,33,VALID,0.560156,
2008-06-04, 01:45:04,VALID,1004.15,VALID,0,VALID,87.5643,VALID,0,VALID,25.2435,VALID,42,VALID,0.110547,
2008-06-04, 01:46:04,VALID,1004.14,VALID,0,VALID,87.5795,VALID,0,VALID,25.224,VALID,41,VALID,0.00585938,
2008-06-04, 01:47:04,VALID,1004.16,VALID,0,VALID,87.6177,VALID,0,VALID,25.1851,VALID,41,VALID,0.0449219,
2008-06-04, 01:48:04,VALID,1004.17,VALID,0,VALID,87.8618,VALID,0,VALID,25.1851,VALID,9,VALID,0.519531,
2008-06-04, 01:49:04,VALID,1004.15,VALID,0,VALID,87.9915,VALID,0,VALID,25.1851,VALID,10,VALID,0.472656,
2008-06-04, 01:50:04,VALID,1004.09,VALID,0,VALID,88.2585,VALID,0,VALID,25.1656,VALID,10,VALID,0.387891,
2008-06-04, 01:51:04,VALID,1004.12,VALID,0,VALID,88.2738,VALID,0,VALID,25.1656,VALID,4,VALID,0.533984,
2008-06-04, 01:52:04,VALID,1004.06,VALID,0,VALID,88.3272,VALID,0,VALID,25.1267,VALID,4,VALID,0.411328,
2008-06-04, 01:53:04,VALID,1004.05,VALID,0,VALID,88.2738,VALID,0,VALID,25.1248,VALID,10,VALID,0.688281,
2008-06-04, 01:54:04,VALID,1004.07,VALID,0,VALID,87.8847,VALID,0,VALID,25.1851,VALID,18,VALID,1.22852,
2008-06-04, 01:55:04,VALID,1004.06,VALID,0,VALID,87.5338,VALID,0,VALID,25.2825,VALID,8,VALID,1.1293,
2008-06-04, 01:56:04,VALID,1004.07,VALID,0,VALID,87.1752,VALID,0,VALID,25.3195,VALID,32,VALID,0.845703,
2008-06-04, 01:57:04,VALID,1004.07,VALID,0,VALID,86.9921,VALID,0,VALID,25.339,VALID,16,VALID,1.19727,
2008-06-04, 01:58:04,VALID,1004.07,VALID,0,VALID,86.8167,VALID,0.100563,VALID,25.3779,VALID,13,VALID,0.914844,
2008-06-04, 01:59:04,VALID,1004.09,VALID,0,VALID,86.7327,VALID,0.100563,VALID,25.4363,VALID,14,VALID,0.671875,
2008-06-04, 02:00:04,VALID,1004.13,VALID,0,VALID,86.4734,VALID,0.100563,VALID,25.4539,VALID,29,VALID,1.12656,
2008-06-04, 02:01:04,VALID,1004.14,VALID,0,VALID,85.9012,VALID,0,VALID,25.6136,VALID,35,VALID,1.25234,
2008-06-04, 02:02:04,VALID,1004.17,VALID,0,VALID,85.5045,VALID,0,VALID,25.6895,VALID,23,VALID,1.38672,
2008-06-04, 02:03:04,VALID,1004.17,VALID,0,VALID,85.1383,VALID,0,VALID,25.7674,VALID,35,VALID,0.826172,
2008-06-04, 02:04:04,VALID,1004.14,VALID,0,VALID,85.0773,VALID,0,VALID,25.7674,VALID,35,VALID,0.776172,
2008-06-04, 02:05:04,VALID,1004.15,VALID,0,VALID,84.9476,VALID,0,VALID,25.7869,VALID,32,VALID,0.433203,
2008-06-04, 02:06:04,VALID,1004.12,VALID,0,VALID,85.0849,VALID,0,VALID,25.7674,VALID,31,VALID,0.566016,
2008-06-04, 02:07:04,VALID,1004.08,VALID,0,VALID,85.001,VALID,0,VALID,25.7499,VALID,28,VALID,1.24492,
2008-06-04, 02:08:04,VALID,1004.07,VALID,0,VALID,85.1536,VALID,0,VALID,25.7285,VALID,24,VALID,0.417188,
2008-06-04, 02:09:04,VALID,1004.06,VALID,0,VALID,85.2222,VALID,0.100563,VALID,25.6895,VALID,24,VALID,0.673437,
2008-06-04, 02:10:04,VALID,1004.06,VALID,0,VALID,85.4129,VALID,0.100563,VALID,25.6311,VALID,30,VALID,0.782812,
2008-06-04, 02:11:04,VALID,1004.05,VALID,0,VALID,85.7562,VALID,0,VALID,25.5727,VALID,54,VALID,0.716797,
2008-06-04, 02:12:04,VALID,1004.02,VALID,0,VALID,85.9699,VALID,0.100563,VALID,25.5142,VALID,53,VALID,0.590625,
2008-06-04, 02:13:04,VALID,1004.02,VALID,0,VALID,86.3284,VALID,0,VALID,25.4383,VALID,64,VALID,0.485547,
2008-06-04, 02:14:04,VALID,1004,VALID,0,VALID,86.5496,VALID,0,VALID,25.3798,VALID,72,VALID,0.378516,
2008-06-04, 02:15:04,VALID,1003.97,VALID,0,VALID,86.7327,VALID,0,VALID,25.3798,VALID,51,VALID,0.294531,
2008-06-04, 02:16:04,VALID,1003.97,VALID,0,VALID,86.8167,VALID,0,VALID,25.3409,VALID,51,VALID,0.248437,
2008-06-04, 02:17:04,VALID,1003.92,VALID,0,VALID,87.0226,VALID,0,VALID,25.3214,VALID,51,VALID,0.237109,
2008-06-04, 02:18:04,VALID,1003.91,VALID,0,VALID,87.2591,VALID,0,VALID,25.2416,VALID,51,VALID,0.218359,
2008-06-04, 02:19:04,VALID,1003.86,VALID,0,VALID,87.427,VALID,0,VALID,25.2435,VALID,51,VALID,0,
2008-06-04, 02:20:04,VALID,1003.82,VALID,0,VALID,87.5643,VALID,0,VALID,25.2046,VALID,47,VALID,0.568359,
2008-06-04, 02:21:04,VALID,1003.8,VALID,0,VALID,87.6406,VALID,0,VALID,25.2046,VALID,45,VALID,0.537891,
2008-06-04, 02:22:04,VALID,1003.78,VALID,0,VALID,87.7779,VALID,0,VALID,25.1656,VALID,43,VALID,0.396484,
2008-06-04, 02:23:04,VALID,1003.8,VALID,0,VALID,87.9915,VALID,0,VALID,25.1461,VALID,43,VALID,0,
2008-06-04, 02:24:04,VALID,1003.78,VALID,0,VALID,88.289,VALID,0,VALID,25.0896,VALID,56,VALID,0,
2008-06-04, 02:25:04,VALID,1003.79,VALID,0,VALID,88.5103,VALID,0,VALID,24.9904,VALID,56,VALID,0,
2008-06-04, 02:26:04,VALID,1003.77,VALID,0,VALID,88.8231,VALID,0,VALID,24.9514,VALID,56,VALID,0,
2008-06-04, 02:27:04,VALID,1003.73,VALID,0,VALID,89.1282,VALID,0,VALID,24.9125,VALID,56,VALID,0,
2008-06-04, 02:28:04,VALID,1003.7,VALID,0,VALID,89.4257,VALID,0,VALID,24.854,VALID,56,VALID,0,
2008-06-04, 02:29:04,VALID,1003.65,VALID,0,VALID,89.6927,VALID,0,VALID,24.8151,VALID,50,VALID,0,
2008-06-04, 02:30:04,VALID,1003.62,VALID,0,VALID,89.8758,VALID,0,VALID,24.7567,VALID,50,VALID,0,
2008-06-04, 02:31:04,VALID,1003.55,VALID,0,VALID,90.4022,VALID,0,VALID,24.7196,VALID,3,VALID,0.645703,
2008-06-04, 02:32:04,VALID,1003.5,VALID,0,VALID,90.7379,VALID,0,VALID,24.6983,VALID,3,VALID,0.542578,
2008-06-04, 02:33:04,VALID,1003.46,VALID,0,VALID,90.8295,VALID,0,VALID,24.7177,VALID,36,VALID,0.686719,
2008-06-04, 02:34:04,VALID,1003.45,VALID,0,VALID,90.593,VALID,0,VALID,24.7956,VALID,28,VALID,1.24219,
2008-06-04, 02:35:04,VALID,1003.46,VALID,0,VALID,90.2573,VALID,0,VALID,24.893,VALID,19,VALID,1.25156,
2008-06-04, 02:36:04,VALID,1003.46,VALID,0,VALID,89.6699,VALID,0,VALID,25.0682,VALID,30,VALID,0.677734,
2008-06-04, 02:37:04,VALID,1003.45,VALID,0,VALID,89.1206,VALID,0,VALID,25.1442,VALID,21,VALID,1.06367,
2008-06-04, 02:38:04,VALID,1003.42,VALID,0,VALID,88.8459,VALID,0,VALID,25.263,VALID,32,VALID,0.74375,
2008-06-04, 02:39:04,VALID,1003.39,VALID,0,VALID,88.6552,VALID,0,VALID,25.3214,VALID,15,VALID,0.789844,
2008-06-04, 02:40:04,VALID,1003.35,VALID,0,VALID,88.2814,VALID,0,VALID,25.3409,VALID,351,VALID,1.12422,
2008-06-04, 02:41:04,VALID,1003.32,VALID,0,VALID,88.1822,VALID,0,VALID,25.3798,VALID,354,VALID,0.724219,
2008-06-04, 02:42:04,VALID,1003.3,VALID,0,VALID,87.9762,VALID,0,VALID,25.4188,VALID,8,VALID,0.739453,
2008-06-04, 02:43:04,VALID,1003.27,VALID,0,VALID,87.755,VALID,0,VALID,25.4772,VALID,38,VALID,1.12617,
2008-06-04, 02:44:04,VALID,1003.26,VALID,0,VALID,87.5033,VALID,0,VALID,25.5142,VALID,18,VALID,0.885156,
2008-06-04, 02:45:04,VALID,1003.23,VALID,0,VALID,87.1447,VALID,0,VALID,25.6136,VALID,35,VALID,0.989453,
2008-06-04, 02:46:04,VALID,1003.22,VALID,0,VALID,86.7175,VALID,0,VALID,25.7109,VALID,40,VALID,0.742969,
2008-06-04, 02:47:04,VALID,1003.19,VALID,0,VALID,86.5802,VALID,0,VALID,25.7304,VALID,32,VALID,0.792578,
2008-06-04, 02:48:04,VALID,1003.14,VALID,0,VALID,86.481,VALID,0,VALID,25.709,VALID,10,VALID,0.788281,
2008-06-04, 02:49:04,VALID,1003.15,VALID,0,VALID,86.3437,VALID,0,VALID,25.7499,VALID,34,VALID,0.645312,
2008-06-04, 02:50:04,VALID,1003.16,VALID,0,VALID,86.4276,VALID,0,VALID,25.7499,VALID,37,VALID,1.11914,
2008-06-04, 02:51:04,VALID,1003.14,VALID,0,VALID,86.2826,VALID,0,VALID,25.8083,VALID,11,VALID,1.14102,
2008-06-04, 02:52:04,VALID,1003.13,VALID,0,VALID,86.1606,VALID,0,VALID,25.8278,VALID,22,VALID,1.60898,
2008-06-04, 02:53:04,VALID,1003.14,VALID,0,VALID,86.0156,VALID,0,VALID,25.8473,VALID,24,VALID,1.45859,
2008-06-04, 02:54:04,VALID,1003.17,VALID,0,VALID,86.1987,VALID,0,VALID,25.8687,VALID,18,VALID,0.498047,
2008-06-04, 02:55:04,VALID,1003.17,VALID,0,VALID,86.214,VALID,0,VALID,25.7889,VALID,62,VALID,1.03945,
2008-06-04, 02:56:04,VALID,1003.15,VALID,0,VALID,86.0538,VALID,0,VALID,25.8687,VALID,32,VALID,2.15898,
2008-06-04, 02:57:04,VALID,1003.19,VALID,0,VALID,85.8325,VALID,0,VALID,25.9057,VALID,52,VALID,1.425,
2008-06-04, 02:58:04,VALID,1003.18,VALID,0,VALID,85.6952,VALID,0,VALID,25.9836,VALID,37,VALID,0.853516,
2008-06-04, 02:59:04,VALID,1003.18,VALID,0,VALID,85.4358,VALID,0,VALID,25.9817,VALID,21,VALID,2.15391,
2008-06-04, 03:00:04,VALID,1003.24,VALID,0,VALID,85.3519,VALID,0.100563,VALID,26.0206,VALID,49,VALID,1.68945,
2008-06-04, 03:01:04,VALID,1003.23,VALID,0,VALID,85.4435,VALID,0,VALID,26.0226,VALID,31,VALID,0.90625,
2008-06-04, 03:02:04,VALID,1003.2,VALID,0,VALID,85.4358,VALID,0,VALID,25.9817,VALID,99,VALID,1.12695,
2008-06-04, 03:03:04,VALID,1003.2,VALID,0,VALID,85.4129,VALID,0.100563,VALID,25.9642,VALID,20,VALID,1.35117,
2008-06-04, 03:04:04,VALID,1003.2,VALID,0,VALID,85.5655,VALID,0,VALID,25.9232,VALID,35,VALID,1.55313,
2008-06-04, 03:05:04,VALID,1003.2,VALID,0,VALID,85.6723,VALID,0.100563,VALID,25.9057,VALID,37,VALID,1.24805,
2008-06-04, 03:06:04,VALID,1003.21,VALID,0,VALID,85.947,VALID,0,VALID,25.8648,VALID,34,VALID,1.25156,
2008-06-04, 03:07:04,VALID,1003.18,VALID,0,VALID,85.9165,VALID,0,VALID,25.8259,VALID,105,VALID,0.622656,
2008-06-04, 03:08:04,VALID,1003.18,VALID,0,VALID,86.008,VALID,0,VALID,25.8278,VALID,40,VALID,0.771484,
2008-06-04, 03:09:04,VALID,1003.17,VALID,0,VALID,86.3055,VALID,0,VALID,25.7674,VALID,3,VALID,0.757422,
2008-06-04, 03:10:04,VALID,1003.16,VALID,0,VALID,86.4962,VALID,0.100563,VALID,25.709,VALID,26,VALID,1.375,
2008-06-04, 03:11:04,VALID,1003.14,VALID,0,VALID,86.6259,VALID,0.100563,VALID,25.7109,VALID,38,VALID,2.16289,
2008-06-04, 03:12:04,VALID,1003.12,VALID,0,VALID,86.6183,VALID,0.100563,VALID,25.67,VALID,360,VALID,2.07344,
2008-06-04, 03:13:04,VALID,1003.15,VALID,0,VALID,86.7633,VALID,0.100563,VALID,25.672,VALID,24,VALID,2.42461,
2008-06-04, 03:14:04,VALID,1003.14,VALID,0,VALID,86.7709,VALID,0.100563,VALID,25.6506,VALID,19,VALID,1.50703,
2008-06-04, 03:15:04,VALID,1003.11,VALID,0,VALID,86.9769,VALID,0,VALID,25.6506,VALID,15,VALID,1.17266,
2008-06-04, 03:16:04,VALID,1003.15,VALID,0,VALID,86.9387,VALID,0,VALID,25.6116,VALID,24,VALID,2.54648,
2008-06-04, 03:17:04,VALID,1003.11,VALID,0,VALID,87.0226,VALID,0.100563,VALID,25.5921,VALID,23,VALID,2.29219,
2008-06-04, 03:18:04,VALID,1003.06,VALID,0,VALID,87.0455,VALID,0,VALID,25.5921,VALID,30,VALID,2.11211,
2008-06-04, 03:19:04,VALID,1003.06,VALID,0,VALID,87.1447,VALID,0,VALID,25.5921,VALID,9,VALID,1.76133,
2008-06-04, 03:20:04,VALID,1003.06,VALID,0,VALID,87.1447,VALID,0.100563,VALID,25.5941,VALID,25,VALID,2.18516,
2008-06-04, 03:21:04,VALID,1003.08,VALID,0,VALID,87.4651,VALID,0,VALID,25.5532,VALID,8,VALID,1.07852,
2008-06-04, 03:22:04,VALID,1003.07,VALID,0,VALID,87.4651,VALID,0.100563,VALID,25.5357,VALID,22,VALID,1.86289,
2008-06-04, 03:23:04,VALID,1003.08,VALID,0,VALID,87.5795,VALID,0.100563,VALID,25.5142,VALID,23,VALID,1.13047,
2008-06-04, 03:24:04,VALID,1003.12,VALID,0,VALID,87.6024,VALID,0.100563,VALID,25.4948,VALID,23,VALID,0.654688,
2008-06-04, 03:25:04,VALID,1003.13,VALID,0,VALID,87.8084,VALID,0.100563,VALID,25.4753,VALID,34,VALID,0.616016,
2008-06-04, 03:26:04,VALID,1003.13,VALID,0,VALID,88.0525,VALID,0.100563,VALID,25.4363,VALID,7,VALID,1.09063,
2008-06-04, 03:27:04,VALID,1003.14,VALID,0,VALID,88.0144,VALID,0.100563,VALID,25.4577,VALID,31,VALID,1.29961,
2008-06-04, 03:28:04,VALID,1003.15,VALID,0,VALID,88.0983,VALID,0,VALID,25.4169,VALID,35,VALID,0.898047,
2008-06-04, 03:29:04,VALID,1003.19,VALID,0,VALID,88.0907,VALID,0,VALID,25.4188,VALID,17,VALID,1.38203,
2008-06-04, 03:30:04,VALID,1003.22,VALID,0,VALID,88.0449,VALID,0,VALID,25.4188,VALID,31,VALID,1.2418,
2008-06-04, 03:31:04,VALID,1003.23,VALID,0,VALID,88.1517,VALID,0,VALID,25.4188,VALID,37,VALID,0.755859,
2008-06-04, 03:32:04,VALID,1003.26,VALID,0,VALID,87.9152,VALID,0,VALID,25.4597,VALID,74,VALID,1.78437,
2008-06-04, 03:33:04,VALID,1003.25,VALID,0,VALID,87.8618,VALID,0,VALID,25.4772,VALID,26,VALID,1.62227,
2008-06-04, 03:34:04,VALID,1003.27,VALID,0,VALID,87.9076,VALID,0,VALID,25.4577,VALID,15,VALID,1.17969,
2008-06-04, 03:35:04,VALID,1003.28,VALID,0,VALID,88.0296,VALID,0,VALID,25.4383,VALID,19,VALID,0.750781,
2008-06-04, 03:36:04,VALID,1003.3,VALID,0,VALID,88.0754,VALID,0,VALID,25.4188,VALID,50,VALID,1.16914,
2008-06-04, 03:37:04,VALID,1003.29,VALID,0,VALID,88.1822,VALID,0,VALID,25.3798,VALID,62,VALID,0.484375,
2008-06-04, 03:38:04,VALID,1003.3,VALID,0,VALID,88.3272,VALID,0,VALID,25.3604,VALID,42,VALID,0.499219,
2008-06-04, 03:39:04,VALID,1003.27,VALID,0,VALID,88.495,VALID,0,VALID,25.3019,VALID,38,VALID,0.297266,
2008-06-04, 03:40:04,VALID,1003.3,VALID,0,VALID,88.6628,VALID,0,VALID,25.263,VALID,44,VALID,0.274609,
2008-06-04, 03:41:04,VALID,1003.33,VALID,0,VALID,88.762,VALID,0,VALID,25.224,VALID,91,VALID,0.242969,
2008-06-04, 03:42:04,VALID,1003.35,VALID,0,VALID,88.9451,VALID,0,VALID,25.1656,VALID,91,VALID,0.289453,
2008-06-04, 03:43:04,VALID,1003.4,VALID,0,VALID,89.1282,VALID,0.100563,VALID,25.1248,VALID,90,VALID,0.508203,
2008-06-04, 03:44:04,VALID,1003.37,VALID,0,VALID,89.3113,VALID,0.100563,VALID,25.0858,VALID,84,VALID,0.558594,
2008-06-04, 03:45:04,VALID,1003.38,VALID,0,VALID,89.4563,VALID,0.100563,VALID,25.0274,VALID,80,VALID,0.944141,